Regional Weather Roundup
Issued by NWS

Home | Current Version | Previous Version | Text Only | Print | Product List | Glossary Off
Versions: 1 2 3 4 5 6 7 8 9 10 11 12 13 14 15 16 17 18 19 20 21 22 23 24 25 26 27 28 29 30 31 32 33 34 35 36 37 38 39 40 41 42 43 44 45 46 47 48 49 50

787
ASUS43 KMPX 231001
RWRMN
WEATHER ROUNDUP FOR MINNESOTA
NATIONAL WEATHER SERVICE TWIN CITIES/CHANHASSEN MN
500 AM CDT THU MAR 23 2017


NOTE: "FAIR" INDICATES FEW OR NO CLOUDS BELOW 12,000 FEET WITH NO
SIGNIFICANT WEATHER AND/OR OBSTRUCTIONS TO VISIBILITY. N/A MEANS
CURRENT SKY AND/OR WEATHER CONDITIONS ARE NOT AVAILABLE.

MNZ060>063-068>070-231100-
   Twin Cities Metro

CITY           SKY/WX    TMP DP  RH WIND       PRES   REMARKS
TWIN CITIES    CLOUDY    37  21  52 SE15      30.19F
ST PAUL        CLOUDY    37  22  54 SE15      30.20F
CRYSTAL        CLOUDY    37  20  50 SE17      30.17F
BLAINE         CLOUDY    37  21  52 SE12      30.18S
LAKEVILLE      CLOUDY    34  25  69 SE9       30.19F WCI  26
EDEN PRAIRIE   CLOUDY    38  22  52 SE15      30.17F
SOUTH ST PAUL  CLOUDY    37  21  53 SE10      30.20F
LAKE ELMO      CLOUDY    36  21  55 SE9       30.21F
$$
MNZ001>005-007-008-013>017-022>024-027-028-231100-
   Northwest Minnesota

CITY           SKY/WX    TMP DP  RH WIND       PRES   REMARKS
BEMIDJI        CLOUDY    33  19  54 S13       30.01F WCI  24
HALLOCK        CLOUDY    32  27  80 S14       29.91F WCI  22
ROSEAU         MOCLDY    34  25  69 S12       29.95F WCI  25
WARROAD        CLOUDY    34  23  64 S9        29.96F WCI  26
THIEF RVR FALL   N/A    N/A N/A N/A MISG        N/A
CROOKSTON      CLOUDY    34  25  69 S16       29.94F WCI  23
FOSSTON        CLEAR     32  19  59 S12       29.96F WCI  23
DETROIT LAKES  CLEAR     34  23  64 SE15      29.99F WCI  24
MOORHEAD       CLEAR     36  23  60 S23G31    29.95F
PARK RAPIDS    CLOUDY    35  19  52 S16       30.02F WCI  25
MAHNOMEN       FAIR      33  22  62 S13G22    29.96F WCI  24
$$
MNZ006-009>011-018-025>026-231100-
   North Central Minnesota

CITY           SKY/WX    TMP DP  RH WIND       PRES   REMARKS
BAUDETTE       CLOUDY    33  19  56 S14       29.98F WCI  23
FLAG ISLAND    CLOUDY    30  21  69 SE20      29.96F WCI  18
INTL FALLS     CLOUDY    32  18  56 S9        30.06F WCI  24
WASKISH        CLOUDY    34  19  55 S13G22    30.00F WCI  25
BIG FORK       CLOUDY    34  19  55 S9G16     30.07F WCI  26
LONGVILLE      CLOUDY    30  21  69 SE5       30.08F WCI  25
GRAND RAPIDS   CLOUDY    30  23  75 S21G26    30.11S WCI  17
CRANE LAKE     CLOUDY    27  21  80 SE6       30.13F WCI  20
ORR            CLOUDY    30  16  55 S3        30.09S
COOK           CLOUDY    30  19  64 S13G18    30.12S WCI  20
WALKER         CLOUDY    33  18  54 S7        30.04F WCI  27
$$
MNZ012-019>021-037-231100-
   Northeast Minnesota

CITY           SKY/WX    TMP DP  RH WIND       PRES   REMARKS
DULUTH         FLURRIES  29  23  78 S12       30.19F WCI  19
ELY            FLURRIES  28  19  69 S10G20    30.15F WCI  19
HIBBING        CLOUDY    30  17  58 SE14G21   30.12F WCI  19
EVELETH        CLOUDY    30  18  60 S9G17     30.15F WCI  22
DULUTH HARBOR  MIX PCPN  32  27  80 S10       30.26S WCI  24
TWO HARBORS    MIX PCPN  32  25  74 SE5       30.21F WCI  27
SILVER BAY     MIX PCPN  30  25  80 CALM      30.22F
GRAND MARAIS     N/A     30  24  78 CALM      30.27F
G MARAIS ARPRT FLURRIES  25  18  74 S5        30.21F WCI  19
$$
MNZ029>031-032-039>041-046>048-054>057-064-231100-
   West Central Minnesota

CITY           SKY/WX    TMP DP  RH WIND       PRES   REMARKS
FERGUS FALLS   CLEAR     36  23  60 S17       30.03F
WHEATON        CLOUDY    34  25  69 SE15      29.98F WCI  24
MORRIS         CLEAR     36  25  64 SE18      29.99F
ALEXANDRIA     CLOUDY    36  22  56 S20G26    30.04F
ELBOW LAKE     FAIR      35  24  63 E25G32    29.99F WCI  23
WADENA         CLOUDY    34  21  60 SE13G18   30.03F WCI  25
GLENWOOD       CLOUDY    36  23  60 SE18      30.05S
APPLETON       CLOUDY    37  25  60 SE12G21   30.00F
BENSON         CLOUDY    39  21  48 S15G21    30.04F
ORTONVILLE     CLOUDY    36  27  69 SE13G18   29.97F
MADISON        CLOUDY    39  28  65 SE15      29.99F
WILLMAR        CLOUDY    37  25  60 SE18G24   30.07F
$$
MNZ033>034-036-042>043-049>051-058-059-231100-
   Central Minnesota

CITY           SKY/WX    TMP DP  RH WIND       PRES   REMARKS
ST CLOUD       CLOUDY    36  22  56 SE15      30.13F
SAUK CENTRE    CLOUDY    35  22  61 SE17G25   30.06F WCI  24
PAYNESVILLE      N/A     36  23  59 SE15G23   30.09F
AITKIN         MIX PCPN  34  19  55 SE17      30.10F WCI  23
PINE RIVER     CLOUDY    34  21  60 SE14      30.10F WCI  24
BRAINERD       CLOUDY    33  19  56 S12G24    30.09F WCI  24
STAPLES        CLOUDY    34  19  55 SE12G17   30.05F WCI  25
LONG PRAIRIE   CLOUDY    34  21  60 SE15      30.08F WCI  24
LITTLE FALLS   CLOUDY    34  19  55 SE9       30.11F WCI  26
LITCHFIELD     CLOUDY    37  25  60 SE10G16   30.11F
BUFFALO        CLOUDY    37  21  53 SE8G17    30.16F
MAPLE LAKE     CLOUDY    37  25  60 SE10G17   30.14F
HUTCHINSON     CLOUDY    36  26  67 SE14G20   30.13F
$$
MNZ037-044-045-052-053-231100-
   East Central Minnesota

CITY           SKY/WX    TMP DP  RH WIND       PRES   REMARKS
PRINCETON      CLOUDY    37  19  48 SE13      30.16S
MORA           CLOUDY    32  27  80 SE9       30.19F WCI  24
CAMBRIDGE      CLOUDY    37  21  52 SE10G16   30.15F
RUSH CITY      CLOUDY    31  25  77 E7        30.19F WCI  24
MOOSE LAKE     CLOUDY    32  25  74 S6        30.16F WCI  26
HINCKLEY       CLOUDY    32  28  86 SE9       30.19F WCI  24
CLOQUET        FLURRIES  28  25  86 SE8       30.17F WCI  20
MCGREGOR       CLOUDY    32  27  80 SE12      30.14F WCI  23
$$
MNZ071>073-080-081-089-090-097-098-231100-
   Southwest Minnesota

CITY           SKY/WX    TMP DP  RH WIND       PRES   REMARKS
MONTEVIDEO     CLOUDY    37  25  60 S15G22    30.03F
GRANITE FALLS  CLOUDY    38  28  65 SE17      30.05F
CANBY          CLOUDY    41  28  60 S12G21    29.99F
MARSHALL       CLOUDY    38  25  59 S17       30.02F
REDWOOD FALLS  CLOUDY    37  24  59 SE18      30.07F
OLIVIA         CLOUDY    36  27  69 SE15G22   30.07F
PIPESTONE      CLOUDY    37  21  52 S17       29.98F
WINDOM         MOCLDY    36  25  64 SE14G22   30.06F
WORTHINGTON    CLOUDY    36  23  59 SE16      30.04F
JACKSON        CLOUDY    34  25  69 SE15      30.08F WCI  24
TRACY          CLOUDY    38  27  64 S16       30.03F
SLAYTON        CLOUDY    35  26  68 SE18G28   30.02F WCI  25
$$
MNZ065>067-074>077-082>085-091>093-231100-
   South Central Minnesota

CITY           SKY/WX    TMP DP  RH WIND       PRES   REMARKS
MANKATO        CLOUDY    36  24  62 SE18      30.14F
NEW ULM        CLOUDY    36  23  60 SE15      30.11F
ST JAMES       CLOUDY    36  27  69 SE16G23   30.11F
FAIRMONT       CLOUDY    36  23  59 S21       30.10F
GLENCOE        CLOUDY    37  27  65 SE10G16   30.14F
FARIBAULT      CLOUDY    36  25  64 SE13G18   30.17F
OWATONNA       CLOUDY    36  23  60 SE15G21   30.17F
WASECA         CLOUDY    36  27  69 SE17G23   30.17F
ALBERT LEA     CLOUDY    34  23  64 SE17      30.17F WCI  23
$$
MNZ078>079-086>088-094>096-231100-
   Southeast Minnesota

CITY           SKY/WX    TMP DP  RH WIND       PRES   REMARKS
ROCHESTER      CLOUDY    34  23  64 SE21      30.21F WCI  22
RED WING       CLOUDY    37  19  48 SE10      30.23F
STANTON        CLOUDY    37  24  60 SE12      30.18F
DODGE CENTER   CLOUDY    34  25  69 SE16      30.19F WCI  23
WINONA         CLOUDY    36  25  64 SE12      30.28F
AUSTIN         CLOUDY    34  23  64 SE8G16    30.19F WCI  27
PRESTON        CLOUDY    33  20  59 S17G23    30.23F WCI  22
$$
ABBREVIATIONS USED IN REMARKS
   TC - TEMPERATURES IN CELSIUS
  WCI - WIND CHILL INDEX
   HX - HEAT INDEX
  VSB - VISIBILITY
$$




USA.gov is the U.S. government's official web portal to all federal, state and local government web resources and services.